Location: Killam
(52.7910°N, 111.8608°W)
Time: 16:57:49
(UTC+00:00)

Vanguard 2 Rocket - Pass Details

Date: 17 February 2026
Orbit: 553 x 3286 km, 32.9° (Epoch: 11 March)

Event Time Altitude Azimuth Distance (km) Brightness Sun altitude
Rises 20:50:30 0° 234° (SW) 7,169 12.3 23.8°
Reaches altitude 10° 20:56:29 10° 225° (SW) 5,939 12.4 23.5°
Maximum altitude 21:10:07 30° 175° (S) 3,689 11.4 22.7°
Drops below altitude 10° 21:19:40 10° 121° (ESE) 4,120 10.4 22.1°
Sets 21:22:55 0° 110° (ESE) 4,746 10.5 21.9°
